Hourly Data Report for April 25, 2003

SHERBROOKE A
QUEBEC

45°26'00.000" N
71°41'00.000" W
241.40 m
7028124
71610
YSC

Download Data

Hourly Data (April 2003)
Hourly Data Report for April 25, 2003
TIME
LST
Temp Definition
°C
Dew Point Definition
°C
Rel Hum Definition
%
Precip. Amount Definition
mm

Wind Dir Definition
10's deg

Wind Spd Definition
km/h
Visibility Definition
km
Stn Press Definition
kPa
Hmdx Definition


Wind Chill Definition


Weather Definition


00:00 -0.3 -1.4 92   26 17 11.3 97.95   -5  
01:00 -0.3 -1.6 91   27 17 15.0 97.93   -5 Snow
02:00 -0.4 -1.9 90   27 13 15.0 97.98   -5 Snow
03:00 -0.5 -2.1 89   26 11 15.0 98.05   -4 Snow
04:00 -0.5 -2.2 88   27 9 15.0 98.06   -4 Snow
05:00 -0.5 -2.6 86   26 7 15.0 98.11   -3  
06:00 -0.5 -2.8 84   26 11 15.0 98.19   -4  
07:00 -0.2 -2.9 82   26 9 24.1 98.23   -3 Cloudy
08:00 0.3 -2.7 80   26 9 24.1 98.28     Mostly Cloudy
09:00 0.9 -3.7 71   26 19 24.1 98.33     Mostly Cloudy
10:00 1.3 -3.9 68   25 17 24.1 98.41     Cloudy
11:00 1.6 -3.3 70   21 15 24.1 98.47     Mostly Cloudy
12:00 2.3 -4.1 63   27 15 24.1 98.50     Mostly Cloudy
13:00 3.4 -4.1 58   24 9 24.1 98.52     Mainly Clear
14:00 4.1 -3.4 58   27 13 24.1 98.53     Mainly Clear
15:00 5.3 -2.7 56   29 7 24.1 98.49     Mainly Clear
16:00 6.3 -2.1 55   17 6 24.1 98.50     Mainly Clear
17:00 5.8 -3.3 52   25 13 15.0 98.55      
18:00 5.3 -2.5 57   30 9 15.0 98.55      
19:00 3.3 -1.6 70   36 6 15.0 98.58      
20:00 1.3 -2.2 77   5 9 15.0 98.67      
21:00 1.3 -2.3 77   6 11 15.0 98.71      
22:00 0.2 -2.5 82   4 9 15.0 98.71      
23:00 -0.2 -2.6 84   6 9 15.0 98.70   -3  

Notes on Data Quality.

Legend

  • E = Estimated
  • M = Missing
  • NA = Not Available*
  • [empty] = Indicates an unobserved value
Date modified: